Starlink 33634

operational
NORAD ID: 63377 Int'l Des: 2025-063 Owner: SPXS Country: US Constellation: starlink
LEOCIRCULAR

About Starlink 33634

Description loading...

Live Position

Loading 3D Globe...

Upcoming Passes

Altitude History

Altitude vs Time

uPlot chart will show altitude changes over time

Two-Line Element Set

1 63377U 25063Q 25349.64057523 .00015908 00000-0 54795-3 0 9993
2 63377 53.1594 82.6864 0001552 61.0157 299.0999 15.30208129 41892
Epoch: Dec 15, 2025 • Age: 27 hours

Current Status

Altitude 478.7 km
Velocity 7.63 km/s
Sub-Earth Point -10.85°S, 103.04°W
Launch Date Mar 26, 2025
Age 0.7 years
Type internet

Technical Details

Classification Payload
Mass 575.00 kg
Dry Mass 530.00 kg
Total Mass 575.00 kg
Length 0.30 m
Diameter 4.10 m
Span 29.00 m
Shape Box + pan
Manufacturer SPXS
Bus Type Starlink V2MO
Phase Status In Orbit
Owner/State SPXS/US

Large Constellations

Loading constellations...